Cosmos 1825 - Orbit

View from above orbital plane
View from above orbital plane
View from above satellite
View from above satellite

Ground track
Ground track

The orbit data is extracted from the following two-line orbital elements,

1 17566U 87024A   13143.07310740  .00002907  00000-0  18099-3 0  7277
2 17566 082.5080 314.7487 0003939 329.4692 170.3649 15.09240958428864
Epoch (UTC): 23 May 2013 01:45:16
Eccentricity: 0.0003939
inclination: 82.5080°
perigee height: 536 km
apogee height: 541 km
right ascension of ascending node: 314.7487°
argument of perigee: 329.4692°
revolutions per day: 15.09240958
mean anomaly at epoch: 170.3649°
orbit number at epoch: 42886

The dashed part of the orbit path shows where the satellite is in the earth's shadow,  

Developed and maintained by Chris Peat, Heavens-Above GmbH. Please read the updated FAQ before sending e-mail. Imprint. DLR